Погода в Луисвилле

США     38°15′16″N   85°46′05″W
темп.,
°C
ветер,
м/с
пор.,
м/с
влажн.,
%
обл.,
%
осадки,
мм/ч
давл.,
гПа
погр.,
м
28 июля, ср
ср2823:00+25ссв22730 0.0 101724
02:00+23ссв11800 0.0 101724
05:00+22ссв11780 0.0 101716
08:00+23в00740 0.0 101848
11:00+29ссз12590 0.0 1018628
14:00+32сз34480 0.0 10171418
17:00+33ссз34444 0.0 10151558
20:00+29ссз255970 0.0 1015187
29 июля, чт
чт2923:00+26з11765 0.0 101534
02:00+24зсз228111 0.0 101552
05:00+23з1183100 0.0 101526
08:00+24зюз1282100 0.0 1016103
11:00+30зюз3660100 0.0 1015879
14:00+34з5847100 0.0 10131470
17:00+35з58455 0.0 10121665
20:00+31з48600 0.0 10121019
30 июля, пт
пт3023:00+28з39765 0.0 1013377
02:00+26зсз38870 0.1 1013375
05:00+24с379234 0.0 1014358
08:00+22с36855 0.0 1016297
11:00+26ссв45708 0.0 1017714
14:00+29с45485 0.0 10171387
17:00+28с5647100 0.0 10171435
20:00+25с476410 0.0 1018770
31 июля, сб
сб3123:00+21ссв397712 0.0 1019326
02:00+20св2679100 0.0 1020260
05:00+19всв257818 0.0 1019228
08:00+19всв247545 0.0 1020216
11:00+22всв236198 0.0 1020497
14:00+27ссв2244100 0.0 10191241
17:00+27ссв3149100 0.0 10171198
20:00+24ссв1164100 0.0 101759
1 августа, вс
вс123:00+21зсз1277100 0.0 101752
02:00+20сз1282100 0.0 101655
05:00+19сз1286100 0.0 101566
08:00+20зсз247885 0.0 1015174
11:00+23зсз356499 0.0 1015619
14:00+27зсз4555100 0.0 10141303
17:00+28сз4653100 0.0 10131706
20:00+25ссз23725 0.4 1013132